Saint Petersburg, FL

8:13 AM EST on February 08, 2016 (GMT -0500)
Whitted

Weather History for KSPG - December, 2011

Change the Weather History Date:

Wednesday, December 21, 2011

  Actual Average Record
Temperature  
Mean Temperature 70 °F -  
Max Temperature 77 °F 71 °F 81 °F (1956)
Min Temperature 64 °F 56 °F 40 °F (1954)
Cooling Degree Days 6    
Growing Degree Days 20 (Base 50)    
Moisture  
Dew Point 63 °F    
Average Humidity 81    
Maximum Humidity 93    
Minimum Humidity 58    
Precipitation  
Precipitation 0.00 in - - ()
Sea Level Pressure  
Sea Level Pressure 30.10 in    
Wind  
Wind Speed 10 mph (South)    
Max Wind Speed 16 mph    
Max Gust Speed 23 mph    
Visibility 10 miles    
Events      
Averages and records for this station are not official NWS values.
T = Trace of Precipitation, MM = Missing Value Source: NWS Daily Summary

Daily Weather History Graph

Daily Weather History Graph

Search for Another Location

Airport or City:

Trip Planner

Search our weather history database for the weather conditions in past years. The results will help you decide how hot, cold, wet, or windy it might be!

Date:

Astronomy

Dec. 21, 2011 Rise Set
Actual Time 7:17 AM EST 5:40 PM EST
Civil Twilight 6:51 AM EST 6:05 PM EST
Nautical Twilight 6:22 AM EST 6:35 PM EST
Astronomical Twilight 5:53 AM EST 7:03 PM EST
Moon 3:54 AM EST (12/21) 2:54 PM EST (12/21)
Length of Visible Light 11h 14m
Length of Day
10h 23m
Waning Crescent, 12% of the Moon is Illuminated
Dec 21
Waning Crescent
Dec 24
New
Jan 1
First Quarter
Jan 9
Full
Jan 16
Last Quarter

Hourly Weather History & Observations

Time (EST) Temp. Dew Point Humidity Pressure Visibility Wind Dir Wind Speed Gust Speed Precip Events Conditions
12:53 AM 66.0 °F 63.0 °F 90% 30.11 in 10.0 mi SSE 10.4 mph - N/A   Mostly Cloudy
1:53 AM 64.9 °F 63.0 °F 93% 30.10 in 10.0 mi SSE 10.4 mph - N/A   Clear
2:53 AM 64.0 °F 62.1 °F 93% 30.11 in 10.0 mi South 9.2 mph - N/A   Clear
3:53 AM 64.0 °F 62.1 °F 93% 30.11 in 10.0 mi South 9.2 mph - N/A   Clear
4:53 AM 64.9 °F 62.1 °F 90% 30.09 in 10.0 mi SSE 11.5 mph - N/A   Clear
5:53 AM 64.0 °F 62.1 °F 93% 30.10 in 10.0 mi SSE 9.2 mph - N/A   Clear
6:53 AM 64.0 °F 62.1 °F 93% 30.11 in 10.0 mi South 15.0 mph - N/A   Clear
7:53 AM 64.0 °F 62.1 °F 93% 30.11 in 10.0 mi SSE 12.7 mph - N/A   Clear
8:53 AM 66.9 °F 63.0 °F 87% 30.14 in 10.0 mi South 10.4 mph - N/A   Clear
9:53 AM 69.1 °F 64.0 °F 84% 30.15 in 10.0 mi South 9.2 mph - N/A   Clear
10:53 AM 73.0 °F 64.0 °F 73% 30.14 in 10.0 mi South 10.4 mph - N/A   Clear
11:53 AM 75.0 °F 64.0 °F 69% 30.12 in 10.0 mi South 10.4 mph - N/A   Clear
1:53 PM 77.0 °F 62.1 °F 60% 30.06 in 10.0 mi SSW 9.2 mph - N/A   Clear
2:53 PM 77.0 °F 61.0 °F 58% 30.05 in 10.0 mi SW 10.4 mph - N/A   Clear
3:53 PM 75.9 °F 61.0 °F 60% 30.06 in 10.0 mi SW 16.1 mph 21.9 mph N/A   Clear
4:53 PM 75.0 °F 62.1 °F 64% 30.06 in 10.0 mi SW 16.1 mph 23.0 mph N/A   Clear
5:53 PM 73.0 °F 62.1 °F 68% 30.07 in 10.0 mi SW 10.4 mph - N/A   Clear
6:53 PM 71.1 °F 63.0 °F 75% 30.07 in 10.0 mi SW 8.1 mph - N/A   Clear
7:53 PM 70.0 °F 63.0 °F 78% 30.08 in 10.0 mi SW 6.9 mph - N/A   Clear
8:53 PM 69.1 °F 64.0 °F 84% 30.09 in 10.0 mi SW 5.8 mph - N/A   Clear
9:53 PM 68.0 °F 64.0 °F 87% 30.09 in 10.0 mi SSW 5.8 mph - N/A   Clear
10:53 PM 66.9 °F 64.0 °F 90% 30.10 in 10.0 mi South 5.8 mph - N/A   Clear
11:53 PM 66.0 °F 64.0 °F 93% 30.09 in 10.0 mi South 4.6 mph - N/A   Clear